Regional Weather Roundup
Issued by NWS

Home | Current Version | Previous Version | Text Only | Print | Product List | Glossary On
Versions: 1 2 3 4 5 6 7 8 9 10 11 12 13 14 15 16 17 18 19 20 21 22 23 24 25 26 27 28 29 30 31 32 33 34 35 36 37 38 39 40 41 42 43 44 45 46 47 48 49 50
000
ASCA42 TJSJ 172011
RWRPR
PUERTO RICO/U.S. VIRGIN ISLANDS HOURLY WEATHER ROUNDUP
NATIONAL WEATHER SERVICE SAN JUAN PR
400 PM AST THU APR 17 2014

PRZ001-004-172100-
PUERTO RICO

CITY           SKY/WX    TMP DP  RH WIND       PRES   REMARKS
SAN JUAN LMM   MOSUNNY   84  70  61 E16G28    29.99F
AGUADILLA      MOSUNNY   81  70  69 E20G28    30.00S
CEIBA          SUNNY     82  72  69 E13       30.02S
$$

PRZ006-007-172100-
U.S. VIRGIN ISLANDS

CITY           SKY/WX    TMP DP  RH WIND       PRES   REMARKS
CHARLOTTE AMA  CLOUDY    79  75  89 E7        29.99S
CHRISTIANSTED  MOSUNNY   84  70  61 E18G26    29.99S
$$

HOURLY WEATHER ROUNDUP FOR THE NEWS MEDIA

CITY           SKY/WX    TMP DP  RH WIND       PRES   REMARKS
MIAMI          CLOUDY    79  72  79 NE14      30.07F
ORLANDO        CLOUDY    74  63  68 NE17G26   30.18F
NEW YORK       PTSUNNY   46  28  49 SE16G23   30.69F
NEWARK         PTSUNNY   45  30  55 SE10G17   30.68F
CHICAGO        PTSUNNY   60  37  42 W14G22    30.19R
HARTFORD       CLOUDY    42  26  53 NE15G21   30.72F
BOSTON         CLOUDY    39  26  59 E10       30.78F WCI  32
DALLAS         CLOUDY    64  51  62 E8        30.13F
PHILADELPHIA   MOSUNNY   52  29  41 E13       30.64F



USA.gov is the U.S. government's official web portal to all federal, state and local government web resources and services.